Location: Dompnac
(44.5644°N, 4.1026°E)
Time: 18:15:55
(UTC+00:00)

Cosmos 1634 Rocket - Pass Details

Date: 21 January 2021
Orbit: 961 x 991 km, 82.9° (Epoch: 05 March)

Event Time Altitude Azimuth Distance (km) Brightness Sun altitude
Rises 04:13:05 0° 128° (SE) 3,635 7.6 -31.8°
Reaches altitude 10° 04:17:17 10° 100° (E) 2,695 7.2 -31.0°
Maximum altitude 04:19:38 12° 77° (ENE) 2,525 7.0 -30.6°
Drops below altitude 10° 04:22:00 10° 54° (NE) 2,704 7.0 -30.2°
Sets 04:26:11 0° 27° (NNE) 3,660 7.3 -29.4°
